This is the latest recevied weather packets stored in our database for station/object KC5DAQ-25. If no packets are shown the sender has not sent any weather packets the latest 1 day(s).
| Time | Temp. | Humidity | Pressure | Rain* | Wind** | Luminosity | Snow |
|---|---|---|---|---|---|---|---|
| 1778014232 | 28.33° C | 77% | 998.9 hPa | 0 mm | - | 368 W/m² | - |
| 1778014171 | 28.33° C | 77% | 999.1 hPa | 0 mm | - | 360 W/m² | - |
| 1778014113 | 28.33° C | 78% | 999 hPa | 0 mm | - | 304 W/m² | - |
| 1778013991 | 28.33° C | 78% | 999 hPa | 0 mm | - | 273 W/m² | - |
| 1778013806 | 28.33° C | 77% | 999.1 hPa | 0 mm | - | 237 W/m² | - |
| 1778013677 | 28.33° C | 76% | 999.1 hPa | 0 mm | - | 258 W/m² | - |
| 1778013499 | 28.89° C | 76% | 999.1 hPa | 0 mm | - | 302 W/m² | - |
| 1778013198 | 28.89° C | 77% | 999.2 hPa | 0 mm | - | 345 W/m² | - |
| 1778012837 | 28.33° C | 76% | 999.3 hPa | 0 mm | - | 406 W/m² | - |
| 1778012717 | 28.33° C | 76% | 999.3 hPa | 0 mm | - | 427 W/m² | - |
| 1778012357 | 28.89° C | 76% | 999.4 hPa | 0 mm | - | 369 W/m² | - |
| 1778012296 | 28.89° C | 76% | 999.4 hPa | 0 mm | - | 369 W/m² | - |
| 1778012056 | 28.33° C | 78% | 999.4 hPa | 0 mm | - | 487 W/m² | - |
| 1778011516 | 28.33° C | 78% | 999.5 hPa | 0 mm | - | 492 W/m² | - |
| 1778011456 | 28.33° C | 78% | 999.5 hPa | 0 mm | - | 360 W/m² | - |
| 1778011337 | 28.33° C | 79% | 999.6 hPa | 0 mm | - | 360 W/m² | - |
| 1778011036 | 28.33° C | 79% | 999.9 hPa | 0 mm | - | 420 W/m² | - |
| 1778010978 | 27.78° C | 79% | 999.8 hPa | 0 mm | - | 420 W/m² | - |
| 1778010916 | 27.78° C | 79% | 999.8 hPa | 0 mm | - | 420 W/m² | - |
| 1778010737 | 27.78° C | 79% | 999.8 hPa | 0 mm | - | 427 W/m² | - |
| 1778010616 | 27.78° C | 79% | 999.9 hPa | 0 mm | - | 389 W/m² | - |
| 1778010437 | 27.78° C | 78% | 999.9 hPa | 0 mm | - | 387 W/m² | - |
| 1778010196 | 27.78° C | 78% | 999.9 hPa | 0 mm | - | 260 W/m² | - |
| 1778010075 | 28.33° C | 77% | 1000.1 hPa | 0 mm | - | 260 W/m² | - |
| 1778010018 | 28.33° C | 77% | 1000 hPa | 0 mm | - | 517 W/m² | - |
* Rain latest hour (hover to see other rain measurements)
** Current wind speed in m/s (hover to see current wind gust speed)